Address 0x27182ebfc4c2810dd244b310f349e2391ab906d1 2

 
 
Txn Hash Method
Block
From
To
Value [Txn Fee]
0x4ae7a8fe3856db4eef54006109c6b43f63ff70c9b2979d9d02551a88d83b5067Transfer349632492022-10-29 22:59:3927 days 23 hrs ago0x27182ebfc4c2810dd244b310f349e2391ab906d1OUT 0xa9c26e87496ee01584dd498673632b5d6c50a87a0 MATIC0.00526375250
0x25878a40c6651ba8509d5b5de4b64b16e48b3615fadd852d592b8d3fd103c854Transfer349629742022-10-29 22:50:1327 days 23 hrs ago0x27182ebfc4c2810dd244b310f349e2391ab906d1OUT 0xa9c26e87496ee01584dd498673632b5d6c50a87a0 MATIC0.00526375250
0x639c503ad0674b30c71564a4376ddf6e459ff61c333d87f8a0f16c2682019ee9Transfer349627002022-10-29 22:40:4927 days 23 hrs ago0x27182ebfc4c2810dd244b310f349e2391ab906d1OUT 0xa9c26e87496ee01584dd498673632b5d6c50a87a0 MATIC0.00526375250
0x7c27e9cc2ab2cd9d8bad29b79a6943bb861a2d7984cf28d2ab7ecf5b4f61f1bbTransfer349623822022-10-29 22:29:5327 days 23 hrs ago0x27182ebfc4c2810dd244b310f349e2391ab906d1OUT 0xa9c26e87496ee01584dd498673632b5d6c50a87a0 MATIC0.00526375250
0x4b6538f0db103470dac27d113ba8c7b50577d018a35caa443ee4e03f84a62b31Transfer349621002022-10-29 22:20:0927 days 23 hrs ago0x27182ebfc4c2810dd244b310f349e2391ab906d1OUT 0xa9c26e87496ee01584dd498673632b5d6c50a87a0 MATIC0.00526375250
0x883c33b1119207df7fc86fb936a8982d39e811974736b55a0f0f9309de3be113Transfer349618052022-10-29 22:10:0327 days 23 hrs ago0x27182ebfc4c2810dd244b310f349e2391ab906d1OUT 0xa9c26e87496ee01584dd498673632b5d6c50a87a0 MATIC0.00526375250
0x9b854be5d7d5e44d15be31a41d1040a7a45d1baad26398c69041b21ab7e737a70x6f195e4f349615012022-10-29 21:59:3528 days 1 min ago0x27182ebfc4c2810dd244b310f349e2391ab906d1OUT 0xa9c26e87496ee01584dd498673632b5d6c50a87a0 MATIC0.003898895361.9
0xd6e857d51364220e21643ea70f49a93253e89c6f2cb3dba34f8e5aed7a9ecd48Transfer349614732022-10-29 21:58:3928 days 2 mins ago0x27182ebfc4c2810dd244b310f349e2391ab906d1OUT 0xa9c26e87496ee01584dd498673632b5d6c50a87a0 MATIC0.00526375250
0x2f5073fd37d4f7c427d5eac0b42fc66dfc81f3e4b0ab8aa6da7c3a60dff19d67Transfer349610342022-10-29 21:41:1028 days 19 mins ago0x27182ebfc4c2810dd244b310f349e2391ab906d1OUT 0xa9c26e87496ee01584dd498673632b5d6c50a87a0 MATIC0.00526375250
0x75d35328f20c5ceda91cc600896699e3cde7bf0b51be102f9abfc11f759a4e43Transfer349607722022-10-29 21:32:1028 days 28 mins ago0x27182ebfc4c2810dd244b310f349e2391ab906d1OUT 0xa9c26e87496ee01584dd498673632b5d6c50a87a0 MATIC0.00526375250
0x7272fc1041bb85d7c6c901c7bc2471d443f2f0a134a917fb44bfeec535ec68810x4346ea2a349604462022-10-29 21:20:5428 days 39 mins ago0x27182ebfc4c2810dd244b310f349e2391ab906d1OUT 0xa9c26e87496ee01584dd498673632b5d6c50a87a0 MATIC0.003750167348 41.34648293
0xd1e00b73dffb3b6cfb20d3fcf658575cc46b32f920de07fd68d8a1002eb774a0Transfer349603492022-10-29 21:17:3628 days 43 mins ago0x27182ebfc4c2810dd244b310f349e2391ab906d1OUT 0xa9c26e87496ee01584dd498673632b5d6c50a87a0 MATIC0.00526375250
0x06eecea45d1df7a9bd75b3a6b9bc214e2421d406b5c183b2d53324b59dbad4b30x6f195e4f349599592022-10-29 21:04:0828 days 56 mins ago0x27182ebfc4c2810dd244b310f349e2391ab906d1OUT 0xa9c26e87496ee01584dd498673632b5d6c50a87a0 MATIC0.004783445775.9
0xf91e863347c98aed7fd293339c21431aacb18adc51aa4a0be6c27a1457db3414Transfer349593582022-10-29 20:43:2528 days 1 hr ago0x27182ebfc4c2810dd244b310f349e2391ab906d1OUT 0xa9c26e87496ee01584dd498673632b5d6c50a87a0 MATIC0.00526375250
0xc2bd0b4879ea4f6c057a45a78bf9d7d9d60dcae1e2b45edbc5f0e047181ade74Transfer349590612022-10-29 20:32:2828 days 1 hr ago0x27182ebfc4c2810dd244b310f349e2391ab906d1OUT 0xa9c26e87496ee01584dd498673632b5d6c50a87a0 MATIC0.00526375250
0xa8d24cb131aa8af4553db5de0b4db69f66224f11ce6a17a882db55f2a4451e9aTransfer349587632022-10-29 20:22:1228 days 1 hr ago0x27182ebfc4c2810dd244b310f349e2391ab906d1OUT 0xa9c26e87496ee01584dd498673632b5d6c50a87a0 MATIC0.00526375250
0xd6f701829330edfd6fbfa4e10f32c8c281e0177b6a03a0f23f6809a62871b7f30x6f195e4f349583372022-10-29 20:07:3628 days 1 hr ago0x27182ebfc4c2810dd244b310f349e2391ab906d1OUT 0xa9c26e87496ee01584dd498673632b5d6c50a87a0 MATIC0.0041224934475.36
0x941b4f310d2321b4e946ecf9470c36960b81209d8d3f7bfcee0270f3e4384015Transfer349583132022-10-29 20:06:4428 days 1 hr ago0x27182ebfc4c2810dd244b310f349e2391ab906d1OUT 0xa9c26e87496ee01584dd498673632b5d6c50a87a0 MATIC0.00526375250
0x2acf511f898d50cb36d5f4133bfabb8c4d237544e7308f6316e28d8d60b03fbc0x6f195e4f349578912022-10-29 19:52:1628 days 2 hrs ago0x27182ebfc4c2810dd244b310f349e2391ab906d1OUT 0xa9c26e87496ee01584dd498673632b5d6c50a87a0 MATIC0.002587048584 40.57160801
0xb8eda8e99fa205ef807f215931ca99fb8cc0613990e9c7dcadad0ffd68bddd870x4346ea2a349577022022-10-29 19:45:2128 days 2 hrs ago0x27182ebfc4c2810dd244b310f349e2391ab906d1OUT 0xa9c26e87496ee01584dd498673632b5d6c50a87a0 MATIC0.001621615 59.000000015
0x42850beb00a5e14494090aff63deb2145f951f12cd179fc3eb0f8e096f1665a30x4346ea2a349576002022-10-29 19:41:4228 days 2 hrs ago0x27182ebfc4c2810dd244b310f349e2391ab906d1OUT 0xa9c26e87496ee01584dd498673632b5d6c50a87a0 MATIC0.003257415 45
0x566d844078220e744d2aec17af2f61c83245f28c58ed63560a0cb88941d330970x4346ea2a349573832022-10-29 19:34:1528 days 2 hrs ago0x27182ebfc4c2810dd244b310f349e2391ab906d1OUT 0xa9c26e87496ee01584dd498673632b5d6c50a87a0 MATIC0.004005529146 31.781085785
0xd5a76ffbc753771f94daf3f00cfb4ca69f8260aa4da6c48dbd9e7bc01f6d6ed60x4346ea2a349572532022-10-29 19:29:4728 days 2 hrs ago0x27182ebfc4c2810dd244b310f349e2391ab906d1OUT 0xa9c26e87496ee01584dd498673632b5d6c50a87a0 MATIC0.00094937733
0xf9544fde5fbb9a80444e4dc70c00660d96a6b89249440e3b88e11bb8f6d294e30x6f195e4f349571052022-10-29 19:24:3928 days 2 hrs ago0x27182ebfc4c2810dd244b310f349e2391ab906d1OUT 0xa9c26e87496ee01584dd498673632b5d6c50a87a0 MATIC0.0024633 45
0xbd5cb9e1dfedcfd79c458eb6188fe1b6b14d4f5515a3d773184af9ae641ccf340x6f195e4f349570402022-10-29 19:22:2528 days 2 hrs ago0x27182ebfc4c2810dd244b310f349e2391ab906d1OUT 0xa9c26e87496ee01584dd498673632b5d6c50a87a0 MATIC0.001899948598 30.118234679
[ Download CSV Export 
Parent Txn Hash Block From To Value
Loading

Contract Name:
0 MATIC

Compiler Version
0

Optimization Enabled:
0 MATIC

Other Settings:
-NA-
Block Transaction Gas Used Reward
Age Block Fee Address BC Fee Address Voting Power Jailed Incoming
Block Uncle Number Difficulty Gas Used Reward
Loading
Loading
Make sure to use the "Vote Down" button for any spammy posts, and the "Vote Up" for interesting conversations.